Content
SEND FEEDBACK

Daily
Averages
Monthly
Summary
Canada

STRATFORD, ONTARIO


Home > North America > Canada > Ontario
Elevation: 1161 feet     Latitude: 43 24N     Longitude: 081 00W

WEATHER
 
SELECT A DAY
Number of Records: 191,382;   Date Range: 1/1/95 - 8/19/14
 
SHARE

PRINT THIS DATA

[ ← Previous Day ]
WEATHER ALMANAC - MARCH 17, 2013
[ Next Day → ]
[ °C ]   °F
Weather ElementAverageHighLow
Temperature22.5 °F26.6 °F (4:00 pm)19.4 °F (1:00 am)
Dewpoint15.6 °F21.2 °F (5:00 am)6.8 °F (6:00 pm)
Humidity75.4 %93 % (1:00 am)43 % (8:00 pm)
Barometer30.18 in30.32 in (9:00 pm)30.04 in (1:37 am)
Wind Speed5.2 mph12.7 mph (11:00 am)
Wind Gust18.4 mph (10:00 am)
Weather ElementAverage
Visibility12 mi
Wind DirectionSSW (212.2 °)

Weather ElementTotal
Precipitation---
Heating Degree Days42 (Base 65)
Averaged from 38 records on March 17, 2013
WEATHER CONDITIONS BREAKOUT
WIND DIRECTION BREAKOUT
WEATHER BY HOUR - MARCH 17, 2013
[ °C ]   °F
Local TimeTemperatureDewpointHumidityBarometerVisibilityWind DirectionWind SpeedGust SpeedPrecipitationEventsConditions
1:00 AM19.4 °F17.6 °F93 %30.05 in15.0 miCalmScattered Clouds
1:37 AM21.2 °F17.6 °F86 %30.04 in15.0 miCalmSnowLight Snow Showers
2:00 AM21.0 °F18.0 °F81 %30.05 in15.0 miCalm
2:00 AM21.2 °F17.6 °F86 %30.04 in15.0 miCalmScattered Clouds
3:00 AM21.2 °F19.4 °F93 %30.06 in15.0 miWNW (290°)3.5 mphSnowLight Snow Showers
3:20 AM21.2 °F17.6 °F86 %30.06 in6.0 miWNW (290°)3.5 mphSnowLight Snow Showers
3:45 AM21.2 °F19.4 °F93 %30.06 in3.0 miWNW (300°)2.3 mphSnowLight Snow Showers
4:00 AM21.2 °F19.4 °F93 %30.07 in3.0 miWNW (300°)3.5 mphSnowLight Snow Showers
4:27 AM23.0 °F19.4 °F86 %30.07 in2.5 miWest (260°)3.5 mphSnowLight Snow Showers
5:00 AM23.0 °F21.2 °F93 %30.08 in2.0 miNW (320°)4.6 mphSnowLight Snow Showers
5:10 AM23.0 °F21.2 °F93 %30.08 in3.0 miNW (320°)4.6 mphSnowLight Snow Showers
5:26 AM23.0 °F19.4 °F86 %30.08 in12.0 miWest (270°)2.3 mphSnowLight Snow Showers
5:50 AM23.0 °F19.4 °F86 %30.09 in15.0 miWNW (300°)3.5 mphMostly Cloudy
6:00 AM21.2 °F19.4 °F93 %30.10 in15.0 miWNW (300°)3.5 mphScattered Clouds
7:00 AM21.2 °F19.4 °F93 %30.13 in15.0 miWNW (290°)3.5 mphScattered Clouds
8:00 AM21.0 °F18.0 °F86 %30.17 in15.0 miWest (280°)3.5 mph
8:00 AM21.2 °F19.4 °F93 %30.17 in15.0 miWest (280°)3.5 mphSnowLight Snow Showers
8:40 AM21.2 °F17.6 °F86 %30.19 in1.0 miNW (320°)3.5 mphSnowLight Snow Showers
8:50 AM21.2 °F17.6 °F86 %30.19 in1.5 miNW (310°)4.6 mphSnowLight Snow Showers
9:00 AM21.2 °F19.4 °F93 %30.20 in3.0 miWNW (300°)4.6 mphSnowLight Snow Showers
9:27 AM23.0 °F17.6 °F80 %30.21 in15.0 miNNW (330°)5.8 mphMostly Cloudy
9:53 AM24.8 °F17.6 °F74 %30.22 in15.0 miNorth (350°)8.1 mphSnowLight Snow Showers
10:00 AM24.8 °F17.6 °F74 %30.22 in15.0 miNNW (340°)10.4 mph18.4 mphSnowLight Snow Showers
11:00 AM24.8 °F15.8 °F69 %30.25 in15.0 miNorth (350°)12.7 mph18.4 mphSnowLight Snow Showers
12:00 PM24.8 °F14.0 °F64 %30.28 in15.0 miNE (40°)11.5 mphScattered Clouds
1:00 PM24.8 °F14.0 °F64 %30.29 in15.0 miNorth (350°)10.4 mphScattered Clouds
2:00 PM26.0 °F13.0 °F44 %30.29 in15.0 miNorth6.9 mph
2:00 PM24.8 °F12.2 °F59 %30.29 in15.0 miNorth (360°)6.9 mphScattered Clouds
3:00 PM24.8 °F12.2 °F59 %30.28 in15.0 miNNE (20°)8.1 mphScattered Clouds
4:00 PM26.6 °F12.2 °F55 %30.28 in15.0 miNorth (350°)9.2 mphPartly Cloudy
5:00 PM26.6 °F10.4 °F51 %30.28 in15.0 miNNE (30°)9.2 mphPartly Cloudy
6:00 PM24.8 °F6.8 °F46 %30.28 in15.0 miNNE (20°)9.2 mphPartly Cloudy
7:00 PM23.0 °F6.8 °F50 %30.29 in15.0 miNE (50°)6.9 mphPartly Cloudy
8:00 PM21.0 °F8.0 °F43 %30.30 in15.0 miNNE (30°)4.6 mph
8:00 PM21.2 °F8.6 °F58 %30.30 in15.0 miNNE (20°)5.8 mphPartly Cloudy
9:00 PM21.2 °F8.6 °F58 %30.32 in15.0 miNorth (360°)3.5 mphPartly Cloudy
10:00 PM19.4 °F8.6 °F63 %30.31 in15.0 miENE (70°)4.6 mphPartly Cloudy
11:00 PM19.4 °F10.4 °F68 %30.31 in15.0 miNE (50°)6.9 mphPartly Cloudy
Hourly data recorded from CYXU, located miles away from Stratford, Ontario







STORIES FROM OUR PARTNERS